[[{"header":{"parameterUnit":"m.s-1","parameterCategory":1,"la1":30.2991,"la2":30.254,"lo1":-89.0895,"lo2":-89.0444,"dy":0.0017,"dx":0.0017,"nx":28,"ny":28,"refTime":"2025-04-24T21:00:00:Z","depth":0,"parameterNumber":2,"parameterNumberName":"U-component_of_WINDS"},"data":[0,0,0,0,0,0,0,0,0,0,0,0,0,0,0,0,0,0,0,0,0,0,0,0,0,0,0,0,0,0,0,0,0,0,0,0,0,0,0,0,0,0,0,0,0,0,0,0,0,0,0,0,0,0,0,0,0,0,-0.0584,-0.0584,0,-0.0575,-0.0575,-0.0575,-0.0569,-0.0569,-0.0569,-0.0569,-0.0561,-0.0561,-0.0561,0,0,0,0,0,0,0,0,0,0,0,0,0,-0.0597,-0.0597,-0.0584,-0.0584,-0.0584,-0.0575,-0.0575,-0.0575,-0.0569,-0.0569,-0.0569,-0.0569,-0.0561,-0.0561,-0.0561,0,0,0,0,0,0,0,0,0,0,0,0,0,-0.059,-0.0596,-0.0584,-0.058,-0.0579,-0.0575,-0.0575,-0.0575,-0.057,-0.0569,-0.0569,-0.0569,-0.0561,-0.0561,-0.0561,-0.056,0,0,-0.056,-0.056,0,0,0,0,0,0,0,0,-0.059,-0.0589,-0.0581,-0.058,-0.058,-0.0573,-0.0577,-0.057,-0.057,-0.0573,-0.0569,-0.0569,-0.0565,-0.0565,-0.0563,-0.0559,-0.0559,-0.056,-0.056,-0.0559,-0.0559,0,0,0,0,0,0,0,-0.0591,-0.059,-0.058,-0.0581,-0.058,-0.0579,-0.0578,-0.0575,-0.057,-0.0573,-0.0573,-0.0572,-0.0565,-0.0563,-0.0563,-0.0559,-0.056,-0.0559,-0.0559,-0.0559,-0.0555,-0.0555,0,0,0,0,0,0,-0.0592,-0.059,-0.0581,-0.058,-0.0585,-0.0579,-0.0578,-0.0575,-0.057,-0.0569,-0.0572,-0.0571,-0.0564,-0.0563,-0.0563,-0.0561,-0.0559,-0.0559,-0.0559,-0.0555,-0.0555,-0.0555,0,0,0,0,0,0,-0.0592,-0.0591,-0.0581,-0.0585,-0.0584,-0.0578,-0.0576,-0.0575,-0.0574,-0.0569,-0.0568,-0.0571,-0.0564,-0.0563,-0.0561,-0.0561,-0.0559,-0.0559,-0.0554,-0.0555,-0.0555,-0.0559,0,0,0,0,0,0,-0.0593,-0.0591,-0.0591,-0.0585,-0.0584,-0.0579,-0.0576,-0.0575,-0.0573,-0.0573,-0.0568,-0.0567,-0.0564,-0.0561,-0.056,-0.0561,-0.0559,-0.0554,-0.0555,-0.0555,-0.0559,-0.0559,-0.056,0,0,0,0,0,-0.0593,-0.0592,-0.0591,-0.0589,-0.0583,-0.0579,-0.0578,-0.0574,-0.0573,-0.0573,-0.057,-0.0567,-0.0561,-0.0561,-0.056,-0.056,-0.0554,-0.0554,-0.0555,-0.0559,-0.0559,-0.056,0,0,0,0,0,0,-0.0598,-0.0591,-0.0589,-0.0587,-0.0584,-0.0578,-0.0577,-0.0575,-0.0572,-0.0572,-0.0567,-0.0566,-0.0564,-0.0562,-0.0562,-0.0559,-0.0557,-0.0557,-0.0561,-0.0561,-0.0562,-0.0562,-0.0558,0,0,0,0,0,-0.0599,-0.0596,-0.0591,-0.0589,-0.0587,-0.0583,-0.0581,-0.0578,-0.0575,-0.0573,-0.057,-0.0567,-0.0564,-0.0563,-0.056,-0.0558,-0.0557,-0.0558,-0.0559,-0.0559,-0.0559,-0.0558,-0.0559,-0.0555,-0.0555,-0.0555,0,0,-0.06,-0.0596,-0.0595,-0.059,-0.0587,-0.0584,-0.0581,-0.0579,-0.0577,-0.0573,-0.0571,-0.0568,-0.0564,-0.0562,-0.0561,-0.056,-0.056,-0.0559,-0.0559,-0.0559,-0.0558,-0.0559,-0.0559,-0.0555,-0.0555,-0.0555,0,0,-0.0602,-0.0599,-0.0597,-0.0594,-0.059,-0.0587,-0.0586,-0.0581,-0.0579,-0.0577,-0.0574,-0.0572,-0.0567,-0.0565,-0.0563,-0.0564,-0.0562,-0.0564,-0.0566,-0.0565,-0.0565,-0.0566,-0.0566,-0.0566,-0.0564,-0.0564,-0.0564,0,-0.0604,-0.0601,-0.0596,-0.0594,-0.0592,-0.0588,-0.0586,-0.0584,-0.0579,-0.0578,-0.0577,-0.0571,-0.0569,-0.0566,-0.0567,-0.0565,-0.0565,-0.0564,-0.0566,-0.0566,-0.0566,-0.0566,-0.0567,-0.0564,-0.0564,-0.0564,-0.0564,0,-0.0604,-0.0601,-0.0601,-0.0596,-0.0594,-0.0592,-0.0588,-0.0586,-0.0584,-0.0581,-0.0579,-0.0575,-0.0572,-0.0571,-0.0569,-0.0569,-0.0568,-0.0566,-0.0564,-0.0567,-0.0567,-0.0567,-0.0564,-0.0564,-0.0564,-0.0564,0,0,-0.0608,-0.0601,-0.0601,-0.0599,-0.0594,-0.0592,-0.0591,-0.0587,-0.0586,-0.0583,-0.0581,-0.0578,-0.0576,-0.0574,-0.0572,-0.0571,-0.0573,-0.057,-0.0569,-0.057,-0.0572,-0.0574,-0.0574,-0.0571,-0.0571,-0.0571,-0.0573,0,-0.0609,-0.0605,-0.0602,-0.0599,-0.0597,-0.0594,-0.0592,-0.0589,-0.0586,-0.0584,-0.0582,-0.0579,-0.0577,-0.0576,-0.0575,-0.0573,-0.0573,-0.0572,-0.057,-0.057,-0.0571,-0.0574,-0.0576,-0.0577,-0.0573,-0.0573,-0.0573,0,-0.061,-0.0607,-0.0604,-0.06,-0.0599,-0.0597,-0.0594,-0.0592,-0.0589,-0.0587,-0.0585,-0.0582,-0.0581,-0.0579,-0.0577,-0.0576,-0.0575,-0.0574,-0.0574,-0.0573,-0.0572,-0.0574,-0.0578,-0.0578,-0.0573,-0.0573,-0.0573,0,-0.0613,-0.0609,-0.0606,-0.0605,-0.06,-0.0599,-0.0597,-0.0593,-0.0592,-0.0589,-0.0588,-0.0585,-0.0584,-0.0582,-0.0579,-0.0578,-0.0577,-0.0575,-0.0575,-0.0575,-0.0575,-0.0575,-0.0579,-0.0574,-0.0574,-0.0574,-0.0574,0,-0.0615,-0.0613,-0.0608,-0.0607,-0.0605,-0.0601,-0.06,-0.0598,-0.0595,-0.0593,-0.059,-0.0588,-0.0584,-0.0583,-0.058,-0.0579,-0.0578,-0.0577,-0.0576,-0.0577,-0.0577,-0.0576,-0.0576,-0.0574,-0.0574,-0.0574,-0.0574,0,-0.0618,-0.0615,-0.0612,-0.0608,-0.0606,-0.0605,-0.0602,-0.06,-0.0598,-0.0596,-0.0595,-0.0591,-0.0589,-0.0586,-0.0583,-0.0581,-0.058,-0.0579,-0.0581,-0.0581,-0.0581,-0.0581,-0.0584,-0.0585,-0.058,-0.058,-0.058,0,-0.0619,-0.0618,-0.0614,-0.0612,-0.061,-0.0608,-0.0606,-0.0603,-0.0601,-0.0597,-0.0597,-0.0594,-0.0592,-0.0589,-0.0586,-0.0583,-0.0582,-0.0584,-0.0582,-0.0583,-0.0582,-0.0583,-0.0583,-0.0584,-0.0584,-0.0584,-0.0584,0,-0.0622,-0.062,-0.0618,-0.0615,-0.0613,-0.0611,-0.0608,-0.0607,-0.0603,-0.0601,-0.0599,-0.0597,-0.0594,-0.0592,-0.0589,-0.0587,-0.0585,-0.0585,-0.0585,-0.0586,-0.0587,-0.0586,-0.0582,-0.0585,-0.0584,-0.0584,-0.0584,-0.0584,-0.0624,-0.0623,-0.062,-0.0617,-0.0615,-0.0613,-0.0612,-0.0609,-0.0607,-0.0604,-0.0602,-0.06,-0.0597,-0.0593,-0.0591,-0.059,-0.0589,-0.0589,-0.0589,-0.0589,-0.0589,-0.0587,-0.0589,-0.0589,-0.0589,-0.0589,-0.0589,0,-0.0627,-0.0624,-0.0622,-0.0619,-0.0617,-0.0615,-0.0612,-0.0611,-0.0609,-0.0606,-0.0604,-0.0602,-0.06,-0.0597,-0.0594,-0.0594,-0.0593,-0.0593,-0.0593,-0.0593,-0.059,-0.059,-0.0594,-0.0594,-0.0594,-0.0594,-0.0594,-0.0594,-0.0628,-0.0626,-0.0624,-0.0621,-0.0619,-0.0617,-0.0615,-0.0613,-0.0611,-0.0609,-0.0607,-0.0605,-0.0602,-0.06,-0.0598,-0.0597,-0.0596,-0.0597,-0.0596,-0.0594,-0.0593,-0.0593,-0.0593,-0.0597,-0.0597,-0.0599,-0.0599,-0.0599]},{"header":{"parameterUnit":"m.s-1","parameterCategory":1,"la1":30.2991,"la2":30.254,"lo1":-89.0895,"lo2":-89.0444,"dy":0.0017,"dx":0.0017,"nx":28,"ny":28,"refTime":"2025-04-24T21:00:00:Z","depth":0,"parameterNumber":3,"parameterNumberName":"V-component_of_WINDS"},"data":[0,0,0,0,0,0,0,0,0,0,0,0,0,0,0,0,0,0,0,0,0,0,0,0,0,0,0,0,0,0,0,0,0,0,0,0,0,0,0,0,0,0,0,0,0,0,0,0,0,0,0,0,0,0,0,0,0,0,1.2335,1.2334,0,1.2291,1.2291,1.229,1.2252,1.2252,1.2251,1.2251,1.2205,1.2204,1.2203,0,0,0,0,0,0,0,0,0,0,0,0,0,1.2383,1.2382,1.2335,1.2334,1.2334,1.2291,1.2291,1.229,1.2252,1.2252,1.2251,1.2251,1.2205,1.2204,1.2203,0,0,0,0,0,0,0,0,0,0,0,0,0,1.2353,1.2382,1.2335,1.231,1.2307,1.2292,1.2291,1.229,1.2253,1.2252,1.2251,1.2251,1.2205,1.2204,1.2203,1.2208,0,0,1.2199,1.2198,0,0,0,0,0,0,0,0,1.2355,1.2351,1.2314,1.2311,1.2308,1.2277,1.2291,1.2263,1.2253,1.2273,1.2251,1.225,1.2229,1.2226,1.2219,1.2206,1.2204,1.2199,1.2198,1.2198,1.2197,0,0,0,0,0,0,0,1.2357,1.2353,1.2317,1.2313,1.231,1.23,1.2295,1.2285,1.2255,1.2271,1.2268,1.2264,1.2227,1.222,1.2218,1.2203,1.2199,1.2198,1.2197,1.2197,1.2192,1.2193,0,0,0,0,0,0,1.2363,1.2355,1.2319,1.2316,1.233,1.23,1.2294,1.2287,1.2255,1.225,1.2265,1.2262,1.2223,1.2219,1.2216,1.222,1.2198,1.2196,1.2196,1.2191,1.2192,1.2193,0,0,0,0,0,0,1.2364,1.236,1.2321,1.2335,1.2329,1.23,1.2292,1.2287,1.228,1.225,1.2244,1.2263,1.2222,1.2218,1.221,1.2218,1.2196,1.2195,1.2191,1.2192,1.2192,1.2228,0,0,0,0,0,0,1.2366,1.2361,1.2363,1.2335,1.2328,1.2317,1.2293,1.2287,1.2278,1.2275,1.2247,1.2242,1.2221,1.2212,1.2209,1.2216,1.2194,1.219,1.2191,1.2192,1.2226,1.223,1.2233,0,0,0,0,0,1.2367,1.2374,1.2363,1.2359,1.2331,1.2317,1.2313,1.229,1.2279,1.228,1.2261,1.2243,1.2218,1.2212,1.2208,1.2214,1.2189,1.2191,1.2192,1.2224,1.2229,1.2233,0,0,0,0,0,0,1.2403,1.237,1.2357,1.2356,1.234,1.2311,1.2312,1.2296,1.2282,1.2279,1.225,1.2244,1.224,1.2226,1.2221,1.2217,1.2201,1.2202,1.2227,1.2231,1.2235,1.2238,1.2193,0,0,0,0,0,1.2411,1.2403,1.2375,1.2375,1.2368,1.2342,1.2335,1.2318,1.23,1.2293,1.2273,1.2256,1.2244,1.2237,1.2224,1.2224,1.2217,1.2226,1.223,1.2233,1.2234,1.2232,1.2236,1.2197,1.2197,1.2197,0,0,1.2426,1.2407,1.2404,1.2382,1.2368,1.236,1.2336,1.2329,1.2323,1.2292,1.2284,1.2269,1.2248,1.2244,1.2241,1.2232,1.2243,1.2235,1.2238,1.2237,1.2234,1.2238,1.2241,1.2198,1.2198,1.2198,0,0,1.2451,1.2436,1.2435,1.2421,1.24,1.2383,1.2382,1.2356,1.2345,1.2337,1.2314,1.2306,1.2286,1.2271,1.2262,1.2281,1.2263,1.2278,1.2297,1.2296,1.2299,1.2302,1.2308,1.2311,1.2279,1.2279,1.2279,0,1.2472,1.2461,1.2437,1.2431,1.2422,1.2394,1.2393,1.238,1.2356,1.235,1.234,1.2315,1.2298,1.2291,1.2296,1.2289,1.2287,1.2281,1.2301,1.2303,1.2305,1.2311,1.2314,1.2281,1.228,1.228,1.228,0,1.2489,1.2481,1.2483,1.2461,1.2452,1.2448,1.2423,1.2417,1.2401,1.2384,1.2376,1.2356,1.2338,1.2335,1.2319,1.2326,1.2321,1.2306,1.2289,1.2311,1.2316,1.2318,1.2283,1.2283,1.2282,1.2282,0,0,1.2534,1.2499,1.25,1.249,1.2464,1.2458,1.2453,1.2437,1.2432,1.2416,1.2411,1.2395,1.2381,1.237,1.2353,1.2352,1.2368,1.2337,1.2336,1.2344,1.2374,1.2385,1.2388,1.2357,1.2357,1.2357,1.2375,0,1.2554,1.2545,1.2523,1.252,1.2513,1.2486,1.2482,1.2466,1.245,1.244,1.2422,1.2412,1.2395,1.2388,1.2386,1.2367,1.2374,1.2365,1.2351,1.2351,1.2357,1.2391,1.2402,1.242,1.2377,1.2378,1.2378,0,1.2577,1.2563,1.256,1.2535,1.2531,1.2528,1.2511,1.2503,1.2484,1.2472,1.246,1.2441,1.2434,1.2418,1.2408,1.2402,1.2395,1.2385,1.2385,1.2383,1.2366,1.2389,1.2425,1.2428,1.2381,1.2381,1.238,0,1.261,1.2591,1.2587,1.2579,1.255,1.2548,1.2536,1.2516,1.2508,1.2493,1.2487,1.2472,1.2463,1.2451,1.2428,1.2419,1.242,1.2403,1.241,1.2411,1.2411,1.2412,1.2447,1.2407,1.2407,1.2407,1.2407,0,1.2635,1.2634,1.2602,1.2599,1.2597,1.2571,1.257,1.2555,1.2538,1.2531,1.2507,1.2501,1.2471,1.2461,1.2443,1.2437,1.2433,1.2424,1.2419,1.2426,1.2427,1.2421,1.2419,1.2408,1.2408,1.2407,1.2407,0,1.2673,1.2651,1.2644,1.2617,1.2611,1.261,1.2587,1.2583,1.2566,1.2558,1.2555,1.2527,1.2515,1.2491,1.2472,1.2459,1.2457,1.2449,1.2464,1.2461,1.247,1.247,1.2503,1.2506,1.2464,1.2464,1.2465,0,1.269,1.2689,1.2662,1.2657,1.2645,1.2636,1.2628,1.2603,1.2595,1.2573,1.2572,1.2558,1.2545,1.2526,1.2504,1.2489,1.248,1.2493,1.2478,1.2485,1.248,1.2481,1.2481,1.2496,1.2497,1.2497,1.2498,0,1.2723,1.2713,1.2702,1.2688,1.2679,1.2666,1.2651,1.2648,1.2619,1.2612,1.2599,1.2589,1.257,1.2556,1.2538,1.2524,1.2506,1.2503,1.2504,1.2511,1.252,1.2515,1.2473,1.2502,1.2502,1.2501,1.2501,1.2501,1.2751,1.2749,1.273,1.2719,1.2706,1.2693,1.2688,1.2671,1.266,1.2643,1.2628,1.2617,1.2597,1.2571,1.2559,1.2549,1.2541,1.2542,1.2542,1.2543,1.2546,1.2522,1.2546,1.2546,1.2546,1.2545,1.2545,0,1.2783,1.277,1.276,1.2741,1.2732,1.2717,1.27,1.2694,1.2684,1.2668,1.2656,1.2642,1.2628,1.2606,1.259,1.2587,1.2578,1.2584,1.2583,1.2581,1.2555,1.2555,1.2591,1.2591,1.2591,1.2591,1.2591,1.2591,1.2799,1.2794,1.2781,1.277,1.2756,1.2745,1.2737,1.2725,1.2712,1.2697,1.2686,1.2672,1.2653,1.2636,1.2622,1.2616,1.2611,1.262,1.2611,1.2587,1.2582,1.2578,1.2579,1.2619,1.2619,1.2637,1.2637,1.2638]}]]